Mill Rose Farm Restricted Landing Area

Jump to: basic info | weather | runways | comments

Related pages: nearby airports | nearby navaids | notams | map

Basic information (top)

Codes: IL68
Location: lon 42.077202, lat -88.159798, elev 850 ft / 259 m msl
Status: small_airport

Weather (top)

Current conditions for Dupage Airport 11nm (20km) SSW (rec'd 2014/09/21 03:52Z):

KDPA 210352Z 23010KT 6SM BR CLR 21/19 A2976 RMK AO2 SLP071 T02060189

Airport forecast for Dupage Airport 11nm (20km) SSW (rec'd 2014/09/20 00:42Z):

TAF KDPA 202340Z 2100/2124 22008KT P6SM FEW050 SCT100 
     FM210530 27012G17KT P6SM VCSH SCT030 BKN060 
     FM210800 29013G18KT P6SM SCT030 BKN050 
     FM211200 31014G20KT P6SM BKN020 
     FM211700 34015G23KT P6SM VCSH BKN025 
     FM212100 36012G20KT P6SM SCT035

Runways (top)

N/S: 2,500 x 100 ft (762 x 30 m) — grass — lighted

Latest comments (top)

No comments yet for Mill Rose Farm Restricted Landing Area

More... (top)

See also NOTAMs and nearby airports and navaids, or visit the Mill Rose Farm Restricted Landing Area page at the main OurAirports website..